Retour au catalogue

CZ-4 DEB

ActifSSO
NORAD 27687·DEBRIS·🇨🇳 China

Lancé Oct 14, 1999 depuis Taiyuan Satellite Launch Center

Loading…

Prochains Passages (prochaines 24 heures)

TLE

FraisSource: Space-Track

Époque: Sep 14, 2026, 09:07 UTC

1 27687U 99057MT  26257.38004424  .00000081  00000-0  40565-4 0  9990
2 27687  98.7429 302.2672 0087115 233.6079 125.7049 14.38206494266255

Suivez CZ-4 DEB en temps réel avec AllMySat

Download on the App Store